Location: Cold Norton
(51.6667°N, 0.6667°E)
Time: 06:49:31
(UTC+00:00)

Timation 1 Rocket - Pass Details

Date: 18 November 2025
Orbit: 898 x 905 km, 70.0° (Epoch: 12 December)

Event Time Altitude Azimuth Distance (km) Brightness Sun altitude
Rises 16:48:57 0° 327° (NNW) 3,529 7.6 -7.2°
Reaches altitude 10° 16:51:29 10° 330° (NNW) 2,586 6.8 -7.5°
Maximum altitude 16:57:27 70° 55° (NE) 958 4.3 -8.4°
Drops below altitude 10° 17:03:23 10° 139° (SE) 2,575 6.5 -9.3°
Sets 17:05:53 0° 142° (SE) 3,513 7.2 -9.6°
